| time (UTC) | temp C | wind direction | speed KPH | gust KPH | rain 1hr cm | rain 24hr cm | rain mn cm | humidity % | barometer mb |
| 20260831204006 | 15 | 175 | 1.6 | 4.8 | 0.00 | 0.00 | 0.00 | 91 | 1015.9 |
| 20260831203003 | 15 | 175 | 0.0 | 0.0 | 0.00 | 0.00 | 0.00 | 90 | 1015.7 |
| 20260831200009 | 16 | 149 | 3.2 | 8.0 | 0.00 | 0.00 | 0.00 | 88 | 1015.5 |
| 20260831194006 | 16 | 320 | 0.0 | 0.0 | 0.00 | 0.00 | 0.00 | 88 | 1015.5 |
| 20260831193005 | 16 | 320 | 1.6 | 1.6 | 0.00 | 0.00 | 0.00 | 88 | 1015.4 |
| 20260831192004 | 17 | 320 | 3.2 | 4.8 | 0.00 | 0.00 | 0.00 | 86 | 1015.3 |
| 20260831191004 | 17 | 319 | 3.2 | 4.8 | 0.00 | 0.00 | 0.00 | 85 | 1015.3 |
| 20260831190006 | 18 | 319 | 3.2 | 4.8 | 0.00 | 0.00 | 0.00 | 84 | 1015.2 |
| 20260831185004 | 18 | 320 | 1.6 | 3.2 | 0.00 | 0.00 | 0.00 | 82 | 1015.2 |
| 20260831184007 | 18 | 320 | 1.6 | 3.2 | 0.00 | 0.00 | 0.00 | 81 | 1015.2 |
| 20260831183004 | 19 | 320 | 0.0 | 3.2 | 0.00 | 0.00 | 0.00 | 79 | 1015.1 |
| 20260831182005 | 19 | 320 | 0.0 | 3.2 | 0.00 | 0.00 | 0.00 | 78 | 1015.1 |
| 20260831180007 | 20 | 320 | 4.8 | 8.0 | 0.00 | 0.00 | 0.00 | 76 | 1014.9 |
| 20260831175004 | 20 | 327 | 3.2 | 6.4 | 0.00 | 0.00 | 0.00 | 76 | 1014.6 |
| 20260831174006 | 20 | 333 | 4.8 | 6.4 | 0.00 | 0.00 | 0.00 | 75 | 1014.6 |
| 20260831172005 | 21 | 324 | 4.8 | 8.0 | 0.00 | 0.00 | 0.00 | 74 | 1014.3 |
| 20260831171004 | 21 | 333 | 8.0 | 16.1 | 0.00 | 0.00 | 0.00 | 72 | 1014.3 |
| 20260831165004 | 22 | 337 | 11.3 | 19.3 | 0.00 | 0.00 | 0.00 | 70 | 1014.2 |
| 20260831164007 | 23 | 342 | 8.0 | 16.1 | 0.00 | 0.00 | 0.00 | 67 | 1014.1 |
| 20260831163003 | 23 | 327 | 9.7 | 14.5 | 0.00 | 0.00 | 0.00 | 65 | 1014.1 |
| 20260831162004 | 23 | 340 | 9.7 | 17.7 | 0.00 | 0.00 | 0.00 | 65 | 1014.1 |
| 20260831161006 | 24 | 334 | 8.0 | 19.3 | 0.00 | 0.00 | 0.00 | 63 | 1014.0 |
| 20260831160006 | 25 | 333 | 8.0 | 12.9 | 0.00 | 0.00 | 0.00 | 62 | 1013.9 |
| 20260831155007 | 25 | 339 | 6.4 | 12.9 | 0.00 | 0.00 | 0.00 | 62 | 1013.9 |
| 20260831154005 | 25 | 342 | 6.4 | 12.9 | 0.00 | 0.00 | 0.00 | 64 | 1014.0 |
| 20260831153005 | 25 | 340 | 4.8 | 9.7 | 0.00 | 0.00 | 0.00 | 61 | 1014.0 |
| 20260831152008 | 25 | 341 | 4.8 | 9.7 | 0.00 | 0.00 | 0.00 | 61 | 1014.0 |
| 20260831151004 | 25 | 342 | 6.4 | 9.7 | 0.00 | 0.00 | 0.00 | 61 | 1013.9 |
| 20260831150011 | 25 | 350 | 8.0 | 14.5 | 0.00 | 0.00 | 0.00 | 62 | 1014.0 |
| 20260831145006 | 25 | 342 | 6.4 | 9.7 | 0.00 | 0.00 | 0.00 | 61 | 1014.1 |
| 20260831143005 | 25 | 304 | 8.0 | 14.5 | 0.00 | 0.00 | 0.00 | 61 | 1014.1 |
| 20260831142005 | 25 | 319 | 8.0 | 16.1 | 0.00 | 0.00 | 0.00 | 62 | 1014.1 |
| 20260831141005 | 25 | 332 | 8.0 | 16.1 | 0.00 | 0.00 | 0.00 | 61 | 1014.1 |
| 20260831140007 | 25 | 279 | 9.7 | 17.7 | 0.00 | 0.00 | 0.00 | 64 | 1014.1 |
| 20260831135007 | 24 | 287 | 11.3 | 22.5 | 0.00 | 0.00 | 0.00 | 64 | 1014.2 |
| 20260831134005 | 25 | 323 | 8.0 | 16.1 | 0.00 | 0.00 | 0.00 | 63 | 1014.2 |
| 20260831133007 | 24 | 288 | 8.0 | 16.1 | 0.00 | 0.00 | 0.00 | 65 | 1014.3 |
| 20260831132005 | 25 | 261 | 9.7 | 20.9 | 0.00 | 0.00 | 0.00 | 64 | 1014.3 |
| 20260831131006 | 25 | 270 | 11.3 | 22.5 | 0.00 | 0.00 | 0.00 | 62 | 1014.3 |
| 20260831130009 | 25 | 333 | 8.0 | 17.7 | 0.00 | 0.00 | 0.00 | 66 | 1014.4 |
| 20260831125004 | 23 | 265 | 9.7 | 16.1 | 0.00 | 0.00 | 0.00 | 69 | 1014.5 |
| 20260831123004 | 23 | 281 | 9.7 | 17.7 | 0.00 | 0.00 | 0.00 | 70 | 1014.5 |
| 20260831122006 | 23 | 312 | 11.3 | 19.3 | 0.00 | 0.00 | 0.00 | 69 | 1014.5 |
| 20260831121004 | 23 | 309 | 9.7 | 17.7 | 0.00 | 0.00 | 0.00 | 69 | 1014.5 |
| 20260831120009 | 23 | 294 | 6.4 | 14.5 | 0.00 | 0.00 | 0.00 | 68 | 1014.4 |
| 20260831115005 | 23 | 262 | 6.4 | 12.9 | 0.00 | 0.00 | 0.00 | 68 | 1014.3 |
| 20260831114007 | 23 | 279 | 4.8 | 9.7 | 0.00 | 0.00 | 0.00 | 66 | 1014.3 |
| 20260831113005 | 22 | 244 | 1.6 | 8.0 | 0.00 | 0.00 | 0.00 | 72 | 1014.3 |
| 20260831111006 | 22 | 274 | 0.0 | 3.2 | 0.00 | 0.00 | 0.00 | 72 | 1014.3 |
| 20260831110009 | 21 | 274 | 1.6 | 3.2 | 0.00 | 0.00 | 0.00 | 73 | 1014.1 |
| 20260831105005 | 21 | 274 | 1.6 | 4.8 | 0.00 | 0.00 | 0.00 | 72 | 1014.1 |
| 20260831104006 | 21 | 274 | 1.6 | 4.8 | 0.00 | 0.00 | 0.00 | 75 | 1014.2 |
| 20260831103005 | 21 | 274 | 1.6 | 3.2 | 0.00 | 0.00 | 0.00 | 72 | 1014.2 |
| 20260831102005 | 21 | 274 | 1.6 | 3.2 | 0.00 | 0.00 | 0.00 | 76 | 1014.2 |
| 20260831101006 | 21 | 274 | 3.2 | 4.8 | 0.00 | 0.00 | 0.00 | 78 | 1014.3 |
| 20260831100007 | 21 | 274 | 1.6 | 4.8 | 0.00 | 0.00 | 0.00 | 77 | 1014.5 |
| 20260831095007 | 21 | 274 | 3.2 | 6.4 | 0.00 | 0.00 | 0.00 | 72 | 1014.4 |
| 20260831094004 | 21 | 297 | 3.2 | 6.4 | 0.00 | 0.00 | 0.00 | 76 | 1014.6 |
| 20260831093007 | 21 | 360 | 1.6 | 4.8 | 0.00 | 0.00 | 0.00 | 72 | 1014.5 |
| 20260831092006 | 21 | 360 | 1.6 | 4.8 | 0.00 | 0.00 | 0.00 | 71 | 1014.5 |
| 20260831091004 | 21 | 182 | 1.6 | 3.2 | 0.00 | 0.00 | 0.00 | 73 | 1014.4 |
| 20260831090008 | 21 | 325 | 0.0 | 0.0 | 0.00 | 0.00 | 0.00 | 72 | 1014.3 |
| 20260831085004 | 21 | 325 | 3.2 | 6.4 | 0.00 | 0.00 | 0.00 | 76 | 1014.3 |
| 20260831084006 | 20 | 137 | 0.0 | 3.2 | 0.00 | 0.00 | 0.00 | 75 | 1014.2 |
| 20260831083005 | 20 | 137 | 3.2 | 8.0 | 0.00 | 0.00 | 0.00 | 74 | 1014.0 |
| 20260831082006 | 20 | 124 | 6.4 | 11.3 | 0.00 | 0.00 | 0.00 | 75 | 1013.9 |
| 20260831080010 | 21 | 159 | 1.6 | 4.8 | 0.00 | 0.00 | 0.00 | 72 | 1014.1 |
| 20260831075004 | 21 | 159 | 4.8 | 11.3 | 0.00 | 0.00 | 0.00 | 71 | 1014.0 |
| 20260831074006 | 21 | 140 | 6.4 | 11.3 | 0.00 | 0.00 | 0.00 | 70 | 1014.0 |
| 20260831072007 | 21 | 170 | 4.8 | 8.0 | 0.00 | 0.00 | 0.00 | 67 | 1014.2 |
| 20260831071006 | 21 | 157 | 4.8 | 8.0 | 0.00 | 0.00 | 0.00 | 69 | 1014.3 |
| 20260831070007 | 20 | 165 | 8.0 | 14.5 | 0.00 | 0.00 | 0.00 | 69 | 1014.1 |
| 20260831065007 | 20 | 140 | 4.8 | 9.7 | 0.00 | 0.00 | 0.00 | 69 | 1014.3 |
| 20260831064006 | 20 | 160 | 6.4 | 12.9 | 0.00 | 0.00 | 0.00 | 71 | 1014.5 |
| 20260831063006 | 20 | 182 | 6.4 | 11.3 | 0.00 | 0.00 | 0.00 | 72 | 1014.5 |
| 20260831062007 | 19 | 170 | 6.4 | 12.9 | 0.00 | 0.00 | 0.00 | 74 | 1014.5 |
| 20260831061007 | 18 | 178 | 0.0 | 6.4 | 0.00 | 0.00 | 0.00 | 80 | 1014.6 |
| 20260831060009 | 18 | 164 | 3.2 | 4.8 | 0.00 | 0.00 | 0.00 | 82 | 1014.5 |
| 20260831055008 | 17 | 165 | 1.6 | 3.2 | 0.00 | 0.00 | 0.00 | 83 | 1014.5 |
| 20260831054006 | 17 | 165 | 3.2 | 8.0 | 0.00 | 0.00 | 0.00 | 84 | 1014.5 |
| 20260831053008 | 16 | 165 | 0.0 | 3.2 | 0.00 | 0.00 | 0.00 | 87 | 1014.6 |
| 20260831052006 | 17 | 165 | 1.6 | 3.2 | 0.00 | 0.00 | 0.00 | 84 | 1014.6 |
| 20260831051008 | 16 | 165 | 1.6 | 4.8 | 0.00 | 0.00 | 0.00 | 86 | 1014.5 |
| 20260831050009 | 16 | 165 | 1.6 | 3.2 | 0.00 | 0.00 | 0.00 | 89 | 1014.4 |
| 20260831045006 | 15 | 165 | 0.0 | 1.6 | 0.00 | 0.00 | 0.00 | 88 | 1014.5 |
| 20260831044005 | 15 | 165 | 0.0 | 1.6 | 0.00 | 0.00 | 0.00 | 89 | 1014.5 |
| 20260831043007 | 15 | 165 | 0.0 | 0.0 | 0.00 | 0.00 | 0.00 | 89 | 1014.4 |
| 20260831042008 | 15 | 165 | 0.0 | 0.0 | 0.00 | 0.00 | 0.00 | 90 | 1014.5 |
| 20260831041005 | 14 | 165 | 0.0 | 0.0 | 0.00 | 0.00 | 0.00 | 89 | 1014.5 |
| 20260831040010 | 14 | 165 | 0.0 | 0.0 | 0.00 | 0.00 | 0.00 | 90 | 1014.6 |
| 20260831035005 | 14 | 165 | 0.0 | 0.0 | 0.00 | 0.00 | 0.00 | 90 | 1014.5 |
| 20260831034005 | 13 | 165 | 0.0 | 0.0 | 0.00 | 0.00 | 0.00 | 91 | 1014.6 |
| 20260831033005 | 14 | 165 | 0.0 | 3.2 | 0.00 | 0.00 | 0.00 | 90 | 1014.6 |
| 20260831032005 | 15 | 165 | 3.2 | 4.8 | 0.00 | 0.00 | 0.00 | 89 | 1014.6 |
| 20260831031006 | 14 | 165 | 1.6 | 3.2 | 0.00 | 0.00 | 0.00 | 90 | 1014.7 |
| 20260831030007 | 14 | 165 | 1.6 | 3.2 | 0.00 | 0.00 | 0.00 | 90 | 1014.7 |
| 20260831024005 | 13 | 165 | 0.0 | 0.0 | 0.00 | 0.00 | 0.00 | 91 | 1014.6 |
| 20260831023008 | 14 | 165 | 0.0 | 1.6 | 0.00 | 0.00 | 0.00 | 91 | 1014.8 |
| 20260831022005 | 14 | 165 | 3.2 | 4.8 | 0.00 | 0.00 | 0.00 | 90 | 1014.8 |
| 20260831021007 | 15 | 165 | 1.6 | 3.2 | 0.00 | 0.00 | 0.00 | 89 | 1014.9 |
| 20260831020008 | 15 | 165 | 0.0 | 0.0 | 0.00 | 0.00 | 0.00 | 89 | 1014.9 |
| 20260831015007 | 15 | 165 | 0.0 | 0.0 | 0.00 | 0.00 | 0.00 | 89 | 1014.9 |
| 20260831014005 | 14 | 165 | 0.0 | 0.0 | 0.00 | 0.00 | 0.00 | 90 | 1015.0 |
| 20260831013005 | 15 | 165 | 0.0 | 0.0 | 0.00 | 0.00 | 0.00 | 89 | 1014.9 |
| 20260831012005 | 15 | 165 | 1.6 | 3.2 | 0.00 | 0.00 | 0.00 | 89 | 1014.9 |
| 20260831010010 | 15 | 165 | 0.0 | 0.0 | 0.00 | 0.00 | 0.00 | 88 | 1014.9 |
| 20260831005006 | 15 | 165 | 0.0 | 0.0 | 0.00 | 0.00 | 0.00 | 89 | 1015.0 |
| 20260831004008 | 15 | 165 | 0.0 | 0.0 | 0.00 | 0.00 | 0.00 | 89 | 1015.0 |
| 20260831003005 | 15 | 165 | 0.0 | 1.6 | 0.00 | 0.00 | 0.00 | 88 | 1015.1 |
| 20260831002007 | 16 | 165 | 1.6 | 3.2 | 0.00 | 0.00 | 0.00 | 87 | 1015.2 |
| 20260831001005 | 16 | 165 | 0.0 | 0.0 | 0.00 | 0.00 | 0.00 | 88 | 1015.3 |
| 20260831000007 | 15 | 165 | 0.0 | 0.0 | 0.00 | 0.00 | 0.00 | 88 | 1015.4 |
| 20260830234005 | 16 | 165 | 0.0 | 1.6 | 0.00 | 0.00 | 0.00 | 86 | 1015.2 |
| 20260830233007 | 16 | 165 | 1.6 | 3.2 | 0.00 | 0.00 | 0.00 | 83 | 1015.3 |
| 20260830232003 | 16 | 165 | 0.0 | 0.0 | 0.00 | 0.00 | 0.00 | 86 | 1015.3 |
| 20260830231004 | 16 | 165 | 0.0 | 0.0 | 0.00 | 0.00 | 0.00 | 84 | 1015.3 |
| 20260830230007 | 16 | 165 | 0.0 | 0.0 | 0.00 | 0.00 | 0.00 | 83 | 1015.2 |
| 20260830225002 | 16 | 165 | 0.0 | 0.0 | 0.00 | 0.00 | 0.00 | 84 | 1015.2 |
| 20260830224006 | 16 | 165 | 0.0 | 1.6 | 0.00 | 0.00 | 0.00 | 85 | 1015.2 |
| 20260830223005 | 16 | 165 | 1.6 | 3.2 | 0.00 | 0.00 | 0.00 | 84 | 1015.3 |
| 20260830222003 | 17 | 165 | 1.6 | 4.8 | 0.00 | 0.00 | 0.00 | 82 | 1015.2 |
| 20260830221005 | 17 | 165 | 0.0 | 0.0 | 0.00 | 0.00 | 0.00 | 82 | 1015.3 |
| 20260830215004 | 17 | 165 | 3.2 | 4.8 | 0.00 | 0.00 | 0.00 | 79 | 1015.3 |
| 20260830214006 | 17 | 165 | 3.2 | 4.8 | 0.00 | 0.00 | 0.00 | 79 | 1015.2 |
| 20260830213005 | 18 | 165 | 3.2 | 4.8 | 0.00 | 0.00 | 0.00 | 78 | 1015.3 |
| 20260830212006 | 18 | 165 | 4.8 | 8.0 | 0.00 | 0.00 | 0.00 | 77 | 1015.2 |
| 20260830211004 | 17 | 128 | 1.6 | 4.8 | 0.00 | 0.00 | 0.00 | 78 | 1015.2 |
| 20260830205004 | 18 | 128 | 4.8 | 6.4 | 0.00 | 0.00 | 0.00 | 74 | 1015.2 |